www.pogodaiklimat.ru

Погода и климат >> Архив погоды >> Россия >> Крым >> Керчь


АРХИВ ПОГОДЫ в Керчи

Время (UTC), дата Ветер
(напр.,м/с)
 
Видим.   Явления Облачность Т
(С)
Тd
(С)
f
(%)
Тe
(С)
Тes
(С)
Комфортность P
(гПа)
Po
(гПа)
Тmin
(С)
Tmax
(С)
R
(мм)
R24
(мм)
S
(см)
06 19.08 СЗ 4 20 км 8/8 600 м
[Cb calv]
+23.7 +17.1 67 +28 +28 душно 1015.8 1010.1 +18.0
09 19.08 СЗ 2 20 км 6/6 600 м
[Cu hum]
+25.9 +15.6 53 +29 +35 душно 1016.1 1010.4
12 19.08 С 5 20 км 5/4 600 м
[Cu hum Ac trans]
+26.3 +16.8 56 +30 +33 душно 1016.4 1010.8
15 19.08 С 4 20 км ясно +24.6 +18.0 67 +29 +30 душно 1016.7 1011.0
18 19.08 СЗ 2 10 км 4/0
[Ac trans]
+21.3 +16.9 76 +25 +25 комфорт 1017.4 1011.7 +28.7
21 19.08 С 2 10 км 3/0
[Ac trans]
+20.8 +17.6 82 +25 +25 комфорт 1017.5 1011.7
00 20.08 СЗ 2 10 км 8/0
[Ac trans]
+20.3 +17.2 82 +24 +24 комфорт 1017.2 1011.4
03 20.08 С 4 20 км 9/6 600 м
[Cu hum Ac trans]
+23.6 +18.6 74 +28 +28 душно 1017.4 1011.7 +19.9
06 20.08 С 6
{10}
20 км 6/3 600 м
[Cu hum Ac trans]
+26.4 +20.8 71 +33 +34 очень
душно
1017.6 1012.0 +19.9
09 20.08 С 7-10
{11}
20 км 3/3 600 м
[Cu hum]
+28.8 +21.5 65 +37 +40 очень
душно
1017.3 1011.7
12 20.08 С 7-11
{11}
20 км 4/3 600 м
[Cu hum Ci fib]
+28.7 +21.1 64 +36 +38 очень
душно
1017.0 1011.4
15 20.08 С 7-10
{13}
20 км 8/3 600 м
[Cu hum Ac trans Ci fib]
+28.3 +18.0 54 +33 +33 очень
душно
1016.9 1011.3
18 20.08 С 4
{10}
10 км 6/0
[Ac trans]
+25.5 +21.3 78 +32 +32 очень
душно
1016.8 1011.2 +29.5
21 20.08 С 5 10 км 8/0
[Ac trans Ci fib]
+26.0 +21.2 75 +33 +33 очень
душно
1016.6 1011.0
00 21.08 С 5 10 км 8/0
[Ac trans Ci fib]
+25.3 +21.1 78 +32 +32 очень
душно
1015.6 1010.0
03 21.08 штиль 0
{10}
20 км 3/1 600 м
[Sc Ci fib]
+23.8 +20.7 83 +30 +30 очень
душно
1015.5 1009.8 +23.7
06 21.08 С 7-10
{10}
20 км 3/1 600 м
[Cu med, cong Ac trans Ci fib]
+27.1 +19.9 65 +33 +35 очень
душно
1014.7 1009.1 +23.1
09 21.08 С 7-10
{11}
20 км 3/1 600 м
[Cu hum Cc]
+28.3 +19.8 60 +34 +38 очень
душно
1013.9 1008.3
12 21.08 СВ 7-10
{11}
20 км 5/3 600 м
[Sc diur, vesp Ac trans]
+28.7 +19.0 56 +34 +36 очень
душно
1012.9 1007.3
15 21.08 С 5
{11}
20 км 5/3 600 м
[Sc Ac trans Ci fib]
+28.3 +20.9 64 +35 +36 очень
душно
1012.3 1006.7
18 21.08 С 7-11
{11}
10 км 6/5 600 м
[Cb cap Ac trans]
+28.2 +20.0 61 +34 +34 очень
душно
1012.1 1006.5 +29.8
21 21.08 С 8-13
{13}
10 км 8/6 600 м
[Sc diur, vesp Ac trans]
+26.7 +20.8 70 +33 +33 очень
душно
1011.9 1006.3
00 22.08 С 6-10
{13}
10 км 10/8 600 м
[Sc Ac trans Cs]
+25.7 +20.1 71 +32 +32 очень
душно
1010.9 1005.3
03 22.08 СЗ 4
{10}
20 км в посл. час гроза 9/6 600 м
[Cb cap Ac lent Cc]
+25.9 +19.6 68 +31 +31 очень
душно
1010.9 1005.3 +24.8
06 22.08 СВ 3 20 км {гроза} 8/3 600 м
[Cu hum Ac trans Ci fib]
+28.1 +16.8 50 +32 +34 душно 1011.5 1005.9 +24.8
09 22.08 СВ 6
{10}
20 км 6/0
[Ac trans Ci fib]
+29.5 +15.0 41 +32 +36 душно 1011.7 1006.1
12 22.08 С 8-11
{12}
20 км 8/0
[Ac trans Ci fib]
+30.7 +14.9 38 +33 +34 душно 1011.8 1006.3
15 22.08 С 6-11
{12}
20 км 8/0
[Ac lent Ci fib]
+29.1 +19.1 55 +35 +35 очень
душно
1012.0 1006.4
18 22.08 С 7-10
{11}
10 км 6/0
[Ac trans Ci fib]
+27.3 +19.1 61 +33 +33 очень
душно
1012.8 1007.2 +31.7
21 22.08 СВ 10-13
{13}
10 км 4/0
[Ci fib]
+27.3 +19.8 64 +33 +33 очень
душно
1012.9 1007.3
00 23.08 СВ 8-11
{13}
10 км 3/0
[Ci fib]
+25.7 +19.0 67 +31 +31 очень
душно
1012.9 1007.3
03 23.08 С 6-10
{12}
20 км ясно +24.8 +19.6 73 +30 +30 душно 1013.4 1007.8 +24.5
06 23.08 СВ 5
{12}
20 км ясно +28.2 +17.3 52 +32 +36 душно 1014.1 1008.5 +24.5
09 23.08 СВ 4 20 км ясно +29.3 +17.9 50 +34 +44 очень
душно
1014.9 1009.3
12 23.08 С 6
{10}
20 км ясно +29.3 +16.8 47 +33 +37 душно 1014.3 1008.7
15 23.08 С 5 20 км ясно +29.5 +17.8 49 +34 +34 очень
душно
1014.1 1008.5
18 23.08 СЗ 3 10 км ясно +24.7 +17.7 65 +29 +29 душно 1014.5 1008.8 +30.3
21 23.08 С 7-10
{10}
10 км ясно +27.0 +20.0 66 +33 +33 очень
душно
1014.1 1008.5
00 24.08 С 4
{10}
10 км ясно +24.6 +18.3 68 +29 +29 душно 1014.2 1008.5
03 24.08 С 4 20 км ясно +24.2 +18.9 72 +29 +29 душно 1014.8 1009.1 +23.1
06 24.08 С 7-10
{11}
20 км ясно +27.9 +19.3 60 +34 +35 очень
душно
1015.2 1009.6 +23.1
09 24.08 СВ 7-10
{11}
20 км 3/0
[Ac trans]
+28.8 +18.6 54 +34 +37 очень
душно
1015.2 1009.6
12 24.08 С 8-11
{13}
20 км ясно +30.6 +17.9 47 +35 +37 очень
душно
1015.5 1009.9
15 24.08 С 8-12
{13}
20 км 3/0
[Ac trans]
+31.3 +17.2 43 +35 +35 очень
душно
1015.2 1009.7
18 24.08 СВ 7-11
{14}
10 км 4/0
[Ac trans]
+29.3 +19.0 54 +35 +35 очень
душно
1016.0 1010.4 +32.4
21 24.08 СВ 7-10
{11}
10 км 3/0
[Ac trans]
+28.1 +18.6 56 +33 +33 очень
душно
1016.1 1010.5
00 25.08 С 5
{10}
10 км ясно +25.9 +19.6 68 +31 +31 очень
душно
1015.7 1010.1
03 25.08 С 3 20 км 1/1 600 м
[Sc]
+24.2 +20.7 81 +30 +30 очень
душно
1016.7 1011.0 +24.1
06 25.08 С 6
{10}
20 км ясно +27.9 +19.9 62 +34 +37 очень
душно
1017.4 1011.8 +24.1
09 25.08 С 7-10
{10}
20 км ясно +29.0 +18.9 54 +34 +38 очень
душно
1017.3 1011.7
12 25.08 С 7-11
{11}
20 км ясно +30.2 +16.2 43 +33 +36 душно 1017.0 1011.4
15 25.08 С 7-12
{14}
20 км 1/1 600 м
[Cu med, cong]
+30.4 +15.2 40 +33 +33 душно 1016.8 1011.2
18 25.08 С 5
{12}
10 км ясно +25.9 +19.1 66 +31 +31 очень
душно
1017.5 1011.8 +31.9
21 25.08 С 7-11
{11}
10 км ясно +27.0 +20.1 66 +33 +33 очень
душно
1017.0 1011.4
00 26.08 С 2
{11}
10 км 3/0
[Ac trans]
+24.4 +17.7 66 +28 +28 душно 1017.6 1011.9
03 26.08 В 1 20 км 3/0
[Ac trans]
+23.0 +18.4 75 +29 +29 очень
душно
1018.9 1013.2 +22.6

 

Местоположение метеостанции Керчь (Крым, Россия): широта 45.37 долгота 36.43 высота над уровнем моря 49 м.

В архиве по умолчанию представлена погода в Керчи за последнюю неделю. Архивные данные за месяц целиком и за предыдущие месяцы, начиная с января 2011 года, Вы можете получить, выбрав интересующий диапазон дат из раскрывающегося списка и нажав кнопку "Ввод!".


*Определитесь, кто Вы:
робот инопланетянин человек

Внимание! Время в таблицах - всемирное. Для получения местного времени необходимо прибавить поправку, которая равна 3 ч.

Смотрите также архив погоды в соседних городах и на ближайших метеорологических станциях:

Погода в Опасном (Крым, Россия) (16 км)
Погода в Тамани (Краснодарский край, Россия) (28 км)
Погода в Мысовом (Крым, Россия) (48 км)
Погода в Темрюке (Краснодарский край, Россия) (74 км)
Погода в Владиславовке (Крым, Россия) (85 км)
Погода в Анапе (Краснодарский край, Россия) (86 км)
Погода в Феодосии (Крым, Россия) (91 км)
Погода в Карадаге (Крым, Россия) (110 км)
Погода в Славянске-на-Кубани (Краснодарский край, Россия) (133 км)
Погода в Крымске (Краснодарский край, Россия) (133 км)

Пояснения к столбцам:

Ветер - указаны скорость ветра в м/с - средняя за 10 мин, порывы в срок и между сроками (в фигурных скобках) и направление, откуда дует ветер: С - северный, СВ - северо-восточный, В - восточный, ЮВ - юго-восточный, Ю - южный, ЮЗ - юго-западный, З - западный, СЗ - северо-западный.
Видимость - горизонтальная дальность видимости в метрах или километрах. При видимости от 1 до 10 км при отсутствии осадков обычно наблюдается дымка, при ухудшении видимости до 1 км и менее - туман. В сухую погоду видимость может ухудшаться дымом, пылью или мглою.
Явления - указаны атмосферные явления, наблюдавшиеся в срок или в последний час перед сроком; фигурными скобками обозначены явления, наблюдавшиеся между сроками (за 1-3 часа до срока); квадратными скобками обозначены град или гололедные отложения с указанием их диаметра в мм.
Облачность - указаны через наклонную черту общая и нижняя облачность в баллах и высота нижней границы облаков в метрах; квадратными скобками обозначены формы облаков: Ci - перистые, Cs - перисто-слоистые, Cc - перисто-кучевые, Ac - высококучевые, As - высокослоистые, Sc - слоисто-кучевые, Ns - слоисто-дождевые, Cu - кучевые, Cb - кучево-дождевые. Подробнее классификацию облаков см. в Атласе облаков (PDF).
T - Температура воздуха - температура, измеренная на высоте 2 м над землей.
Td - Температура точки росы - температура, при понижении до которой содержащийся в воздухе водяной пар достигнет насыщения.
f - Относительная влажность воздуха - влажноcть воздуха, измеренная на высоте 2 м над землей.
Te - Эффективная температура - температура, которую ощущает одетый по сезону человек в тени. Характеристика душности погоды. При расчете учитывается влияние влажности воздуха и скорости ветра на теплоощущения человека.
Tes - Эффективная температура на солнце - температура, которую ощущает человек, с поправкой на солнечный нагрев. Характеристика знойности погоды. Зависит от высоты солнца над горизонтом, облачности и скорости ветра. Ночью, в пасмурную погоду, а также при ветре 12 м/с и более поправка равна нулю.
P - Атмосферное давление - приведенное к уровню моря атмосферное давление.
Po - Атмосферное давление - измеренное на уровне метеостанции атмосферное давление.
Tmin - Минимальная температура - минимум температуры воздуха на высоте 2 м над землей.
Tmax - Максимальная температура - максимум температуры воздуха на высоте 2 м над землей.
R - Количество осадков - Количество выпавших осадков за период времени, мм. При наведении курсора мыши на число - период времени, за который выпало указанное количество осадков.
R24 - Количество осадков - Количество выпавших осадков за 24 часа, мм.
S - Снежный покров - Высота снежного покрова, см. При наведении курсора мыши на число - состояние снежного покрова и степень покрытия местности в баллах.